STARLINK-5276 (55399 NORAD) Tracking and Keplerian Element Data

This shows tracking and keplerian element data for the satellite.

Feedback or suggestion? Click here.




ElementValue
Catalog55399
NameSTARLINK-5276
Epoch Orbit1518
Epoch Day127.12848835
Epoch Year2023
RAAN181.3479
Inclination69.9982
Eccentricity0.0002839
Argument of Perigee272.3207
Mean Anonmoly87.7663
Mean Motion15.69926838
Decay Rate1.427E-05
L11 55399U 23014J 23127.12848835 .00001427 00000+0 13631-4 0 9996
L22 55399 69.9982 181.3479 0002839 272.3207 87.7663 15.69926838 15183



Live tracking and technical data element details for STARLINK-5276 (NORAD 55399). STARLINK-5276 can be tracked NOW for your location showing map with azimuth and elevation plus other details from your city location.







IsCatalogInMostPopularTable: catalog: 55399, numindb: 1
Update: records affected: 1



GetName: 55399 STARLINK-5276

Hit Count: updated at: Mon, 05 Jun 2023 19:58:20 GMT